[[{"header":{"parameterUnit":"m.s-1","parameterCategory":1,"la1":30.2991,"la2":30.254,"lo1":-89.0895,"lo2":-89.0444,"dy":0.0017,"dx":0.0017,"nx":28,"ny":28,"refTime":"2023-05-01T21:00:00:Z","depth":0,"parameterNumber":2,"parameterNumberName":"U-component_of_WINDS"},"data":[0,0,0,0,0,0,0,0,0,0,0,0,0,0,0,0,0,0,0,0,0,0,0,0,0,0,0,0,0,0,0,0,0,0,0,0,0,0,0,0,0,0,0,0,0,0,0,0,0,0,0,0,0,0,0,0,0,0,-1.5128,-1.5128,0,-1.5149,-1.5149,-1.515,-1.5067,-1.5065,-1.5063,-1.506,-1.5084,-1.5087,-1.5089,0,0,0,0,0,0,0,0,0,0,0,0,0,-1.5018,-1.502,-1.5128,-1.5128,-1.5129,-1.5149,-1.5149,-1.515,-1.5068,-1.5065,-1.5062,-1.5059,-1.5083,-1.5086,-1.509,0,0,0,0,0,0,0,0,0,0,0,0,0,-1.5055,-1.5021,-1.5128,-1.509,-1.5087,-1.5149,-1.5149,-1.515,-1.5068,-1.5065,-1.5061,-1.5058,-1.5082,-1.5086,-1.509,-1.519,0,0,-1.5103,-1.5105,0,0,0,0,0,0,0,0,-1.5053,-1.5059,-1.5096,-1.5093,-1.509,-1.5102,-1.5119,-1.5163,-1.5069,-1.5076,-1.506,-1.5056,-1.5093,-1.5096,-1.5108,-1.5191,-1.5192,-1.5104,-1.5107,-1.5108,-1.511,0,0,0,0,0,0,0,-1.5051,-1.5058,-1.5136,-1.5096,-1.5093,-1.5072,-1.5074,-1.5127,-1.5105,-1.5075,-1.5069,-1.5072,-1.5091,-1.5104,-1.5108,-1.5193,-1.5104,-1.5108,-1.511,-1.5112,-1.5357,-1.5361,0,0,0,0,0,0,-1.5053,-1.5056,-1.5136,-1.5137,-1.5062,-1.5077,-1.5079,-1.5102,-1.5104,-1.5101,-1.5075,-1.5068,-1.5098,-1.5103,-1.5109,-1.5225,-1.5108,-1.5112,-1.5115,-1.5353,-1.5358,-1.5362,0,0,0,0,0,0,-1.5051,-1.5061,-1.5135,-1.5095,-1.5103,-1.5083,-1.511,-1.5104,-1.5117,-1.5104,-1.51,-1.5093,-1.5096,-1.5102,-1.517,-1.5225,-1.5114,-1.5118,-1.5349,-1.5355,-1.536,-1.5459,0,0,0,0,0,0,-1.5048,-1.5061,-1.5099,-1.5097,-1.5105,-1.5196,-1.5113,-1.5107,-1.5125,-1.5116,-1.512,-1.5117,-1.5093,-1.5164,-1.5174,-1.5229,-1.5122,-1.5344,-1.5351,-1.5358,-1.5451,-1.5468,-1.5482,0,0,0,0,0,-1.5044,-1.5127,-1.5101,-1.5111,-1.5152,-1.52,-1.5205,-1.5175,-1.513,-1.5168,-1.5159,-1.5117,-1.5217,-1.5172,-1.5183,-1.5239,-1.534,-1.5349,-1.5358,-1.5444,-1.5465,-1.5482,0,0,0,0,0,0,-1.5137,-1.5126,-1.5097,-1.5181,-1.5192,-1.5186,-1.5233,-1.5198,-1.5223,-1.5214,-1.5176,-1.5178,-1.5252,-1.5252,-1.5202,-1.5335,-1.5271,-1.5282,-1.5333,-1.5352,-1.5367,-1.5366,-1.5125,0,0,0,0,0,-1.5167,-1.5206,-1.5194,-1.5269,-1.5276,-1.5253,-1.5273,-1.5249,-1.5259,-1.5263,-1.526,-1.5271,-1.5305,-1.5328,-1.5359,-1.545,-1.545,-1.5494,-1.551,-1.5523,-1.5533,-1.5581,-1.56,-1.5391,-1.5391,-1.5391,0,0,-1.523,-1.5228,-1.5255,-1.5287,-1.5293,-1.5334,-1.5258,-1.5305,-1.5335,-1.5271,-1.5334,-1.5332,-1.5342,-1.5422,-1.5457,-1.5424,-1.5591,-1.5534,-1.5544,-1.5548,-1.5592,-1.5612,-1.5629,-1.5397,-1.5396,-1.5395,0,0,-1.5365,-1.5368,-1.543,-1.5436,-1.5445,-1.5429,-1.5444,-1.5443,-1.5439,-1.5501,-1.5453,-1.5488,-1.5548,-1.5557,-1.5569,-1.5705,-1.5668,-1.5716,-1.5798,-1.5845,-1.5861,-1.5875,-1.5924,-1.5942,-1.5727,-1.5727,-1.5727,0,-1.5442,-1.5502,-1.5467,-1.5517,-1.5532,-1.5473,-1.5536,-1.5544,-1.5563,-1.5575,-1.5538,-1.561,-1.5613,-1.5693,-1.5726,-1.5738,-1.5754,-1.5716,-1.5861,-1.5875,-1.5888,-1.5934,-1.5952,-1.5733,-1.5732,-1.5731,-1.5731,0,-1.5596,-1.5638,-1.5687,-1.5705,-1.5726,-1.5782,-1.5755,-1.5781,-1.5754,-1.5742,-1.5806,-1.5807,-1.5836,-1.5853,-1.5829,-1.593,-1.5909,-1.5868,-1.5802,-1.5915,-1.5957,-1.5974,-1.5741,-1.5739,-1.5737,-1.5736,0,0,-1.5793,-1.5788,-1.5807,-1.5814,-1.5818,-1.585,-1.5903,-1.593,-1.5952,-1.5966,-1.601,-1.606,-1.6021,-1.6035,-1.601,-1.6051,-1.6158,-1.6004,-1.6003,-1.6033,-1.6269,-1.6301,-1.6322,-1.6133,-1.6136,-1.6138,-1.6268,0,-1.5925,-1.6015,-1.5984,-1.6075,-1.6113,-1.6057,-1.6103,-1.6111,-1.6101,-1.6131,-1.612,-1.6156,-1.6101,-1.6109,-1.6147,-1.6137,-1.6205,-1.6127,-1.6173,-1.6175,-1.6173,-1.6344,-1.6379,-1.6502,-1.6285,-1.6288,-1.629,0,-1.6093,-1.6112,-1.6207,-1.6203,-1.6218,-1.626,-1.6281,-1.6311,-1.6318,-1.6308,-1.6322,-1.6288,-1.634,-1.6273,-1.6343,-1.6291,-1.6308,-1.6305,-1.6309,-1.6313,-1.624,-1.6353,-1.654,-1.6559,-1.6315,-1.6313,-1.6311,0,-1.6226,-1.6276,-1.6339,-1.6346,-1.6343,-1.6374,-1.6374,-1.6377,-1.6395,-1.6414,-1.6425,-1.645,-1.6464,-1.6484,-1.6458,-1.6412,-1.6531,-1.6463,-1.6524,-1.6525,-1.6553,-1.6552,-1.6746,-1.6563,-1.6563,-1.6563,-1.6562,0,-1.6378,-1.6439,-1.6399,-1.6438,-1.6503,-1.6466,-1.6532,-1.6526,-1.6529,-1.6566,-1.6519,-1.6554,-1.6517,-1.6549,-1.6528,-1.6589,-1.6596,-1.6589,-1.6583,-1.6594,-1.6595,-1.6605,-1.6596,-1.6567,-1.6566,-1.6565,-1.6565,0,-1.6539,-1.6515,-1.658,-1.6571,-1.657,-1.6618,-1.6611,-1.6646,-1.6631,-1.6678,-1.6687,-1.6665,-1.67,-1.6675,-1.671,-1.6696,-1.6776,-1.6758,-1.6774,-1.6769,-1.6832,-1.6826,-1.704,-1.7065,-1.6866,-1.6868,-1.6869,0,-1.6638,-1.6683,-1.6678,-1.6699,-1.6701,-1.6735,-1.6753,-1.6717,-1.6737,-1.6747,-1.6782,-1.6812,-1.6835,-1.6893,-1.688,-1.6906,-1.6889,-1.6962,-1.6893,-1.6901,-1.689,-1.6888,-1.6892,-1.6976,-1.6978,-1.698,-1.6982,0,-1.6816,-1.6801,-1.6828,-1.685,-1.6871,-1.6887,-1.6899,-1.6919,-1.6883,-1.6907,-1.6942,-1.6959,-1.6994,-1.7025,-1.7046,-1.7046,-1.7009,-1.7003,-1.7019,-1.7031,-1.7038,-1.7035,-1.6812,-1.6999,-1.6997,-1.6996,-1.6995,-1.6994,-1.6949,-1.6986,-1.6988,-1.7018,-1.7023,-1.7035,-1.7067,-1.7056,-1.7084,-1.7108,-1.7086,-1.7127,-1.7131,-1.7155,-1.716,-1.7192,-1.7162,-1.7185,-1.719,-1.7197,-1.7205,-1.7032,-1.7195,-1.7195,-1.7194,-1.7194,-1.7193,0,-1.7125,-1.7123,-1.7151,-1.7168,-1.7192,-1.7152,-1.7163,-1.7186,-1.7223,-1.7229,-1.7251,-1.7291,-1.732,-1.7308,-1.7334,-1.7361,-1.7344,-1.7369,-1.7367,-1.7368,-1.7231,-1.7215,-1.7382,-1.7382,-1.7382,-1.7382,-1.7382,-1.7382,-1.7219,-1.7279,-1.7264,-1.7325,-1.7322,-1.7362,-1.7371,-1.7381,-1.7386,-1.7431,-1.7455,-1.7446,-1.7446,-1.747,-1.7495,-1.7491,-1.7503,-1.7534,-1.7524,-1.7396,-1.7378,-1.736,-1.7344,-1.7537,-1.7537,-1.7658,-1.7659,-1.766]},{"header":{"parameterUnit":"m.s-1","parameterCategory":1,"la1":30.2991,"la2":30.254,"lo1":-89.0895,"lo2":-89.0444,"dy":0.0017,"dx":0.0017,"nx":28,"ny":28,"refTime":"2023-05-01T21:00:00:Z","depth":0,"parameterNumber":3,"parameterNumberName":"V-component_of_WINDS"},"data":[0,0,0,0,0,0,0,0,0,0,0,0,0,0,0,0,0,0,0,0,0,0,0,0,0,0,0,0,0,0,0,0,0,0,0,0,0,0,0,0,0,0,0,0,0,0,0,0,0,0,0,0,0,0,0,0,0,0,-2.6202,-2.6203,0,-2.6279,-2.628,-2.6281,-2.6247,-2.6246,-2.6244,-2.6242,-2.6317,-2.6321,-2.6325,0,0,0,0,0,0,0,0,0,0,0,0,0,-2.6024,-2.6027,-2.6202,-2.6203,-2.6204,-2.6279,-2.628,-2.6281,-2.6248,-2.6245,-2.6243,-2.6241,-2.6316,-2.632,-2.6325,0,0,0,0,0,0,0,0,0,0,0,0,0,-2.6101,-2.6028,-2.6202,-2.6197,-2.6197,-2.6279,-2.628,-2.6281,-2.6248,-2.6245,-2.6243,-2.624,-2.6315,-2.632,-2.6326,-2.6416,0,0,-2.6343,-2.6345,0,0,0,0,0,0,0,0,-2.6097,-2.6107,-2.6197,-2.6197,-2.6198,-2.6251,-2.6245,-2.6326,-2.6249,-2.6229,-2.6242,-2.6239,-2.6297,-2.6304,-2.6324,-2.642,-2.6423,-2.6343,-2.6347,-2.6349,-2.6351,0,0,0,0,0,0,0,-2.6091,-2.6104,-2.6233,-2.6198,-2.6199,-2.6189,-2.6197,-2.626,-2.6278,-2.623,-2.6228,-2.6238,-2.6297,-2.6319,-2.6326,-2.6424,-2.6343,-2.6348,-2.6351,-2.6354,-2.6596,-2.6599,0,0,0,0,0,0,-2.6086,-2.61,-2.623,-2.6235,-2.6139,-2.6195,-2.6204,-2.6237,-2.6277,-2.628,-2.624,-2.6236,-2.6311,-2.6319,-2.6328,-2.6437,-2.6349,-2.6354,-2.6357,-2.6593,-2.6597,-2.66,0,0,0,0,0,0,-2.6083,-2.6098,-2.6227,-2.6167,-2.6182,-2.6201,-2.6238,-2.624,-2.6262,-2.6284,-2.6287,-2.626,-2.6309,-2.6321,-2.6395,-2.6439,-2.6357,-2.6362,-2.6589,-2.6594,-2.6599,-2.6654,0,0,0,0,0,0,-2.6078,-2.6097,-2.6133,-2.6168,-2.6186,-2.6293,-2.6241,-2.6243,-2.6272,-2.6267,-2.6303,-2.6307,-2.6308,-2.6386,-2.64,-2.6445,-2.6366,-2.6586,-2.6592,-2.6597,-2.6649,-2.666,-2.667,0,0,0,0,0,-2.6071,-2.6145,-2.6135,-2.6151,-2.6231,-2.6296,-2.6306,-2.6307,-2.6276,-2.6311,-2.6325,-2.6306,-2.6432,-2.6394,-2.6409,-2.6457,-2.6583,-2.659,-2.6597,-2.6644,-2.6658,-2.667,0,0,0,0,0,0,-2.6114,-2.6149,-2.6139,-2.6226,-2.6258,-2.629,-2.6335,-2.6322,-2.6363,-2.6357,-2.6354,-2.6363,-2.6439,-2.6455,-2.6413,-2.6546,-2.6502,-2.6513,-2.6533,-2.6547,-2.6557,-2.6552,-2.6371,0,0,0,0,0,-2.6133,-2.6184,-2.6212,-2.6286,-2.6303,-2.6316,-2.6345,-2.6342,-2.6375,-2.6388,-2.6408,-2.644,-2.6487,-2.6518,-2.6562,-2.6651,-2.6657,-2.6691,-2.6701,-2.671,-2.6719,-2.6766,-2.6781,-2.6623,-2.6623,-2.6623,0,0,-2.6174,-2.62,-2.6232,-2.6295,-2.632,-2.6372,-2.6328,-2.6385,-2.6423,-2.6397,-2.6468,-2.6484,-2.6519,-2.6601,-2.6637,-2.6616,-2.6764,-2.6719,-2.6726,-2.673,-2.6775,-2.679,-2.6803,-2.6628,-2.6627,-2.6626,0,0,-2.6274,-2.63,-2.6364,-2.639,-2.6428,-2.6436,-2.6452,-2.6486,-2.6495,-2.6567,-2.6549,-2.6593,-2.6674,-2.67,-2.6723,-2.6833,-2.6816,-2.6847,-2.6904,-2.695,-2.6963,-2.6974,-2.7012,-2.7026,-2.6856,-2.6856,-2.6856,0,-2.632,-2.6398,-2.6398,-2.6457,-2.6485,-2.6464,-2.6529,-2.6554,-2.6604,-2.6623,-2.6599,-2.67,-2.6722,-2.6809,-2.6836,-2.6856,-2.6873,-2.6843,-2.6961,-2.6972,-2.6982,-2.7019,-2.7034,-2.686,-2.6859,-2.6859,-2.6859,0,-2.6452,-2.6506,-2.6553,-2.6604,-2.6637,-2.6698,-2.6706,-2.674,-2.6734,-2.6745,-2.6817,-2.6843,-2.6892,-2.6913,-2.6908,-2.6999,-2.6985,-2.6961,-2.6917,-2.7001,-2.7036,-2.705,-2.6865,-2.6864,-2.6862,-2.6862,0,0,-2.6581,-2.6631,-2.6648,-2.6671,-2.6711,-2.6753,-2.6812,-2.6861,-2.689,-2.6925,-2.6974,-2.7043,-2.7021,-2.7048,-2.7045,-2.7086,-2.717,-2.7057,-2.7057,-2.7077,-2.7272,-2.729,-2.7306,-2.7159,-2.7162,-2.7164,-2.7269,0,-2.6685,-2.6791,-2.6792,-2.6889,-2.6938,-2.692,-2.6971,-2.7001,-2.7012,-2.7055,-2.7066,-2.7115,-2.7083,-2.7099,-2.7138,-2.7152,-2.7209,-2.7144,-2.7204,-2.7206,-2.7196,-2.7324,-2.7343,-2.7441,-2.7282,-2.7285,-2.7286,0,-2.682,-2.686,-2.6962,-2.6995,-2.7016,-2.7063,-2.7107,-2.7149,-2.7182,-2.7187,-2.7217,-2.7208,-2.7268,-2.7222,-2.7303,-2.7259,-2.7283,-2.7293,-2.7297,-2.7303,-2.7252,-2.7333,-2.7472,-2.7486,-2.7308,-2.7306,-2.7304,0,-2.6904,-2.6984,-2.7055,-2.7075,-2.7115,-2.7148,-2.7166,-2.7196,-2.7226,-2.7264,-2.7283,-2.7327,-2.7351,-2.7386,-2.7389,-2.7355,-2.747,-2.7425,-2.7475,-2.7475,-2.75,-2.7499,-2.7645,-2.7517,-2.7516,-2.7516,-2.7516,0,-2.7019,-2.7082,-2.7093,-2.7137,-2.7207,-2.7207,-2.7275,-2.7291,-2.7318,-2.7363,-2.7349,-2.7392,-2.7393,-2.7437,-2.7439,-2.7506,-2.7517,-2.7522,-2.7522,-2.7523,-2.7523,-2.7539,-2.7532,-2.752,-2.7519,-2.7518,-2.7518,0,-2.7125,-2.7135,-2.7211,-2.7243,-2.7253,-2.7302,-2.7329,-2.737,-2.738,-2.7438,-2.7451,-2.7466,-2.7516,-2.7522,-2.7581,-2.7582,-2.7663,-2.7655,-2.7652,-2.7651,-2.7701,-2.7696,-2.7863,-2.7884,-2.7742,-2.7743,-2.7744,0,-2.7198,-2.7246,-2.7283,-2.7313,-2.7333,-2.7382,-2.7411,-2.7413,-2.7445,-2.7485,-2.7522,-2.7571,-2.761,-2.7691,-2.7706,-2.775,-2.7744,-2.7799,-2.7751,-2.775,-2.7745,-2.7742,-2.7746,-2.7809,-2.781,-2.7812,-2.7813,0,-2.7326,-2.7329,-2.7373,-2.7419,-2.7455,-2.7491,-2.7524,-2.7549,-2.7555,-2.7591,-2.7643,-2.7673,-2.7733,-2.7782,-2.7826,-2.7843,-2.7829,-2.7828,-2.7842,-2.7844,-2.784,-2.7842,-2.7677,-2.7824,-2.7823,-2.7822,-2.7822,-2.7821,-2.7417,-2.7459,-2.7492,-2.7541,-2.7567,-2.7599,-2.7639,-2.7654,-2.7697,-2.7747,-2.7745,-2.7802,-2.7832,-2.789,-2.791,-2.7954,-2.7935,-2.7956,-2.7961,-2.7966,-2.7971,-2.7833,-2.7962,-2.7961,-2.7961,-2.7961,-2.7961,0,-2.7545,-2.7565,-2.761,-2.7658,-2.7697,-2.7681,-2.7717,-2.775,-2.7801,-2.7831,-2.787,-2.7929,-2.7976,-2.7995,-2.8041,-2.8072,-2.8067,-2.8084,-2.8082,-2.8086,-2.7985,-2.7968,-2.8088,-2.8088,-2.8088,-2.8087,-2.8087,-2.8087,-2.7616,-2.7685,-2.7692,-2.7773,-2.7793,-2.7849,-2.7871,-2.79,-2.7924,-2.7991,-2.803,-2.8043,-2.8068,-2.8115,-2.8157,-2.8161,-2.8179,-2.8199,-2.82,-2.8106,-2.8093,-2.8081,-2.8065,-2.8203,-2.8203,-2.8297,-2.8298,-2.8299]}]]